Location: Festilli
(46.4000°N, 11.6667°E)
Time: 15:28:18
(UTC+00:00)

SJ-6B - Pass Details

Date: 03 March 2021
Orbit: 509 x 581 km, 97.6° (Epoch: 14 April)

Event Time Altitude Azimuth Distance (km) Brightness Sun altitude
Exits shadow 19:23:10 39° 211° (SSW) 878 3.9 -24.8°
Maximum altitude 19:24:18 51° 260° (W) 724 3.6 -25.0°
Drops below altitude 10° 19:28:17 10° 337° (NNW) 1,877 6.0 -25.6°
Sets 19:30:28 0° 343° (NNW) 2,769 6.9 -26.0°
